STARLINK-36247, 68245

Orbit data source: Space-Track

STARLINK-36247, 68245 is a payload satellite owned by SpaceX/Seattle (US) in LEO that was launched on Tue, 17 Mar 2026 UTC via an FALCON 9 launch vehicle from the Air Force Eastern Test Range (AFETR). Payload-class satellites include a variety of spacecraft equipped with specific instruments for various scientific and technological missions. These include communications satellites like Starlink; space stations such as the ISS; scientific satellites like the Hubble; Earth observation satellites from companies like Planet Labs, Umbra, and HawkEye 360; GPS; miniature CubeSats for education and research; and military/defense satellites.

Loading next visibility...
Identifier
68245, 2026-054P
Orbit
LEO
Country
Flag of USUS
Related business
Manufacturer
SpaceX/Seattle
Mission
Operational spacecraft
Bus & Motor
STARLINK V2MO, Unknown motor
Mass
575 kg wet, ~530 kg dry
Launch date (UTC)
2026-03-17 (2 months ago)
Launch vehicle
FALCON 9
Launch site
Air Force Eastern Test Range (AFETR)
Object type
Payload
Rocket body
Debris
Shape & HBR
Unknown shape, 17.7 m
Radar Cross Section
RCS unknown

Expand to show TLE details & history
Last TLE update: 8 hours ago

TLE from 8 hours ago
0 STARLINK-36247
1 68245U 26054P   26145.42508988  .00054289  00000-0  97591-3 0  9996
2 68245  53.1566 296.6721 0001007  92.7690 267.3434 15.49352378 10790
Epoch: 2026-05-25T10:12Z
TLE epoch observation values (Epoch: 2026-05-25T10:12:07.765Z)
Latitude
-0.00005°
Longitude
-99.37336°
Altitude
419.558 km
Speed
7.661 km/s
True Right ascension
19h 46m 41s
True Declination
0° 00' 00"
Sunlit
Object was in full shadow at epoch
Visualization orbit readout
Latitude
Unknown
Longitude
Unknown
Altitude
Unknown
Speed
Unknown
Apparent Right ascension
Unknown
Apparent Declination
Unknown
Sunlit
N/A
Visualization observer readout
Local Sidereal Time
03:53:19
Azimuth
Unknown
Elevation
Unknown
Doppler factor
Unknown
Orbital elements
Apogee altitude
419.563 km
Perigee altitude
418.194 km
Semi-major axis
6,797.015 km
Eccentricity
0.0001
Inclination
53.1566°
RAAN
296.6721°
Arg. of periapsis
92.769°
True anomaly
267.33187°
Mean anomaly
267.3434°
Eccentric anomaly
267.33764°
Mean motion
3.87316 °/min
Orbital period
92.95 mins
BSTAR
0.00097591
Loading maneuver chart data...
Computing Atmospheric mass density...
Loading historical data...
Loading historical data...
Loading historical data...
Loading historical data...
Loading historical data...
Loading historical data...
Loading historical data...

Documentation

Showing up to 5 results
|